Simultaneous Nadir Overpasses (SNOs) Predictions

Prediction of SNOs between AQUA and METOP-C Satellite Orbit:

Table of predicted SNOs for the next 14.0 days since TLE Epoch: 2/4/2023
Index Date (AQUA) Time (AQUA) Lat,Lon (AQUA) SZA (AQUA ) Date (METOP-C) Time (METOP-C) Lat,Lon (METOP-C) SZA (METOP-C ) Distance(km) Time Diff (sec)
1 02/05/2023 03:57:33 74.18, 116.06 90.25 02/05/2023 03:56:36 74.20, 116.06 90.29 2.90 57
2 02/05/2023 04:46:59 -74.26, -76.49 89.67 02/05/2023 04:47:17 -74.26, -76.48 89.68 0.53 18
3 02/05/2023 05:36:38 74.90, 89.57 91.02 02/05/2023 05:37:43 74.91, 92.61 90.92 88.24 65
4 02/07/2023 22:40:52 -74.21, 15.18 90.57 02/07/2023 22:40:20 -74.23, 15.20 90.54 2.66 32
5 02/07/2023 23:30:20 74.29,-177.37 89.51 02/07/2023 23:30:58 74.30,-177.30 89.51 2.16 38
6 02/10/2023 16:34:39 -73.95, 107.33 91.73 02/10/2023 16:33:28 -73.90, 106.13 91.72 37.20 71
7 02/10/2023 17:24:11 74.24, -85.70 88.57 02/10/2023 17:24:00 74.25, -85.67 88.59 1.74 11
8 02/10/2023 18:13:37 -74.32, 81.76 91.36 02/10/2023 18:14:41 -74.33, 81.84 91.36 2.71 64
9 02/13/2023 11:18:02 74.19, 5.98 87.61 02/13/2023 11:17:03 74.20, 5.95 87.64 1.87 59
10 02/13/2023 12:07:28 -74.27, 173.44 92.32 02/13/2023 12:07:44 -74.29, 173.48 92.31 2.40 16
11 02/13/2023 12:57:05 74.81, -20.26 88.26 02/13/2023 12:58:12 74.82, -17.77 88.17 72.54 67
12 02/16/2023 06:01:18 -74.21, -94.87 93.32 02/16/2023 06:00:47 -74.23, -94.90 93.29 2.79 31
13 02/16/2023 06:50:46 74.30, 72.56 86.77 02/16/2023 06:51:24 74.32, 72.65 86.78 3.42 38



Historial Predications of SNOs between AQUA and METOP-C
